Location: Eschertshofen
(49.3064°N, 11.5756°E)
Time: 01:08:11
(UTC+00:00)

Iridium 26 - Pass Details

Date: 02 October 2021
Orbit: 772 x 775 km, 86.4° (Epoch: 21 October)

Event Time Altitude Azimuth Distance (km) Brightness Sun altitude
Exits shadow 18:34:25 17° 56° (NE) 1,866 7.1 -17.7°
Drops below altitude 10° 18:36:36 10° 33° (NNE) 2,332 7.8 -18.1°
Sets 18:39:33 0° 16° (NNE) 3,264 8.8 -18.5°
